[[{"header":{"parameterUnit":"m.s-1","parameterCategory":1,"la1":30.2991,"la2":30.254,"lo1":-89.0895,"lo2":-89.0444,"dy":0.0017,"dx":0.0017,"nx":28,"ny":28,"refTime":"2024-04-28T21:00:00:Z","depth":0,"parameterNumber":2,"parameterNumberName":"U-component_of_WINDS"},"data":[0,0,0,0,0,0,0,0,0,0,0,0,0,0,0,0,0,0,0,0,0,0,0,0,0,0,0,0,0,0,0,0,0,0,0,0,0,0,0,0,0,0,0,0,0,0,0,0,0,0,0,0,0,0,0,0,0,0,-7.7599,-7.7601,0,-7.7757,-7.7758,-7.776,-7.7745,-7.7742,-7.774,-7.7737,-7.7895,-7.7901,-7.7908,0,0,0,0,0,0,0,0,0,0,0,0,0,-7.7282,-7.7288,-7.7599,-7.7601,-7.7603,-7.7756,-7.7759,-7.7761,-7.7745,-7.7742,-7.7739,-7.7736,-7.7893,-7.79,-7.7908,0,0,0,0,0,0,0,0,0,0,0,0,0,-7.7428,-7.729,-7.7599,-7.7614,-7.7617,-7.7756,-7.7759,-7.7761,-7.7746,-7.7742,-7.7738,-7.7735,-7.789,-7.79,-7.7909,-7.8042,0,0,-7.7939,-7.7943,0,0,0,0,0,0,0,0,-7.742,-7.7439,-7.7609,-7.7613,-7.7616,-7.7727,-7.7705,-7.7855,-7.7747,-7.7697,-7.7737,-7.7733,-7.7842,-7.7855,-7.7893,-7.805,-7.8057,-7.794,-7.7946,-7.795,-7.7953,0,0,0,0,0,0,0,-7.7409,-7.7432,-7.7661,-7.7612,-7.7616,-7.7612,-7.7629,-7.7733,-7.7788,-7.7701,-7.77,-7.7719,-7.7843,-7.7883,-7.7896,-7.8059,-7.794,-7.7948,-7.7954,-7.7958,-7.8334,-7.8338,0,0,0,0,0,0,-7.7396,-7.7424,-7.7656,-7.7666,-7.7507,-7.7621,-7.7639,-7.7695,-7.7787,-7.7797,-7.7722,-7.7718,-7.7869,-7.7885,-7.7902,-7.8064,-7.795,-7.7959,-7.7964,-7.833,-7.8335,-7.834,0,0,0,0,0,0,-7.7389,-7.7417,-7.765,-7.7545,-7.7574,-7.763,-7.7693,-7.77,-7.7741,-7.7803,-7.7812,-7.7753,-7.7866,-7.7888,-7.8008,-7.8069,-7.7963,-7.7972,-7.8325,-7.8332,-7.8338,-7.8388,0,0,0,0,0,0,-7.738,-7.7415,-7.7466,-7.7546,-7.758,-7.7754,-7.7697,-7.7706,-7.7758,-7.7754,-7.7835,-7.7844,-7.7865,-7.7994,-7.8018,-7.808,-7.798,-7.832,-7.8328,-7.8336,-7.8381,-7.8395,-7.8407,0,0,0,0,0,-7.7369,-7.7473,-7.7469,-7.7497,-7.7646,-7.7757,-7.7777,-7.7799,-7.7763,-7.7815,-7.7855,-7.7842,-7.8059,-7.8006,-7.8033,-7.8099,-7.8316,-7.8326,-7.8335,-7.8375,-7.8392,-7.8407,0,0,0,0,0,0,-7.7396,-7.7483,-7.748,-7.7613,-7.7678,-7.7755,-7.782,-7.7817,-7.7893,-7.7885,-7.791,-7.7928,-7.8049,-7.8087,-7.8026,-7.8234,-7.8183,-7.8198,-7.8204,-7.8221,-7.8234,-7.8221,-7.7988,0,0,0,0,0,-7.7418,-7.7502,-7.7574,-7.7684,-7.7718,-7.7764,-7.7813,-7.7826,-7.7894,-7.7921,-7.797,-7.8035,-7.8118,-7.8172,-7.8252,-7.8388,-7.8405,-7.8447,-7.846,-7.8471,-7.8482,-7.8557,-7.8577,-7.8371,-7.8371,-7.837,0,0,-7.7462,-7.7521,-7.7572,-7.7691,-7.7743,-7.7829,-7.7787,-7.7879,-7.7943,-7.7934,-7.805,-7.8089,-7.8164,-7.8293,-7.8352,-7.8328,-7.8544,-7.8483,-7.8491,-7.8497,-7.8569,-7.8588,-7.8606,-7.8377,-7.8376,-7.8375,0,0,-7.7587,-7.7641,-7.7739,-7.7793,-7.7873,-7.7904,-7.7928,-7.8006,-7.8032,-7.815,-7.8145,-7.8222,-7.8364,-7.8418,-7.8464,-7.8614,-7.8605,-7.864,-7.8707,-7.878,-7.8796,-7.881,-7.8862,-7.8881,-7.8652,-7.8652,-7.8653,0,-7.7632,-7.7763,-7.7789,-7.7884,-7.7936,-7.7935,-7.8034,-7.8085,-7.8187,-7.8222,-7.8195,-7.8376,-7.8426,-7.8567,-7.8604,-7.8642,-7.8669,-7.8629,-7.8792,-7.8806,-7.882,-7.887,-7.889,-7.8656,-7.8656,-7.8655,-7.8655,0,-7.7813,-7.7905,-7.7974,-7.8074,-7.8135,-7.8231,-7.8272,-7.833,-7.8339,-7.8372,-7.8493,-7.8554,-7.8647,-7.8682,-7.869,-7.8825,-7.8808,-7.8786,-7.8735,-7.8843,-7.889,-7.891,-7.8661,-7.866,-7.8659,-7.8658,0,0,-7.7955,-7.8072,-7.8097,-7.8143,-7.8233,-7.8304,-7.8401,-7.8493,-7.8542,-7.8614,-7.8695,-7.8818,-7.8799,-7.8852,-7.8867,-7.8931,-7.9045,-7.8901,-7.8904,-7.8924,-7.9197,-7.921,-7.9232,-7.9041,-7.9045,-7.9048,-7.919,0,-7.8088,-7.826,-7.8288,-7.8439,-7.8523,-7.8526,-7.861,-7.8674,-7.871,-7.8786,-7.8824,-7.8911,-7.888,-7.8912,-7.8976,-7.9018,-7.91,-7.9008,-7.9115,-7.9119,-7.9093,-7.9257,-7.9272,-7.9402,-7.9209,-7.9212,-7.9214,0,-7.8264,-7.8342,-7.8502,-7.8583,-7.8619,-7.8695,-7.8782,-7.8856,-7.893,-7.8951,-7.9012,-7.902,-7.9121,-7.9068,-7.9206,-7.9144,-7.919,-7.9218,-7.9223,-7.9231,-7.917,-7.9267,-7.9444,-7.9463,-7.9244,-7.9241,-7.9239,0,-7.8349,-7.8495,-7.8609,-7.8649,-7.8747,-7.88,-7.8843,-7.8913,-7.8968,-7.9045,-7.908,-7.9168,-7.9215,-7.9283,-7.9315,-7.9274,-7.9451,-7.9401,-7.947,-7.9469,-7.9504,-7.95,-7.9688,-7.9539,-7.9538,-7.9538,-7.9537,0,-7.8492,-7.8589,-7.8649,-7.8719,-7.8828,-7.8861,-7.8968,-7.9009,-7.9073,-7.9151,-7.9159,-7.9232,-7.9271,-7.935,-7.9376,-7.9486,-7.9508,-7.9527,-7.9532,-7.9524,-7.9522,-7.9552,-7.9543,-7.9543,-7.9542,-7.9541,-7.954,0,-7.8604,-7.8648,-7.8773,-7.8857,-7.888,-7.8957,-7.9028,-7.9096,-7.9133,-7.9231,-7.9256,-7.9313,-7.9406,-7.9446,-7.9561,-7.9578,-7.9704,-7.9704,-7.9679,-7.968,-7.9746,-7.9738,-7.9957,-7.9987,-7.982,-7.9822,-7.9823,0,-7.8691,-7.8766,-7.8859,-7.8912,-7.8958,-7.9044,-7.91,-7.9136,-7.9194,-7.9286,-7.9343,-7.9437,-7.9514,-7.9663,-7.9714,-7.9802,-7.9802,-7.9873,-7.9815,-7.9806,-7.9801,-7.9795,-7.9802,-7.9882,-7.9884,-7.9885,-7.9886,0,-7.884,-7.8859,-7.894,-7.9031,-7.9099,-7.9171,-7.9242,-7.9285,-7.9332,-7.9398,-7.9494,-7.9554,-7.9673,-7.9765,-7.9857,-7.9901,-7.9901,-7.9905,-7.9925,-7.9917,-7.9898,-7.9907,-7.9705,-7.9899,-7.9898,-7.9897,-7.9896,-7.9895,-7.894,-7.9007,-7.9084,-7.9175,-7.9233,-7.93,-7.9368,-7.9415,-7.9496,-7.9596,-7.9613,-7.9716,-7.979,-7.9913,-7.9961,-8.0042,-8.0024,-8.0053,-8.006,-8.0066,-8.007,-7.9889,-8.0059,-8.0059,-8.0058,-8.0058,-8.0058,0,-7.9088,-7.9138,-7.9222,-7.9322,-7.9394,-7.9392,-7.9471,-7.9531,-7.9622,-7.9692,-7.9768,-7.9879,-7.9971,-8.0031,-8.0123,-8.0176,-8.0178,-8.0198,-8.0193,-8.0203,-8.0081,-8.0054,-8.0195,-8.0195,-8.0195,-8.0195,-8.0195,-8.0195,-7.9173,-7.9286,-7.9315,-7.9458,-7.9507,-7.9609,-7.9654,-7.9716,-7.9772,-7.9897,-7.9973,-8.0013,-8.0079,-8.0176,-8.026,-8.0275,-8.0307,-8.0328,-8.0342,-8.0226,-8.0212,-8.0198,-8.0172,-8.0336,-8.0336,-8.0457,-8.0458,-8.0459]},{"header":{"parameterUnit":"m.s-1","parameterCategory":1,"la1":30.2991,"la2":30.254,"lo1":-89.0895,"lo2":-89.0444,"dy":0.0017,"dx":0.0017,"nx":28,"ny":28,"refTime":"2024-04-28T21:00:00:Z","depth":0,"parameterNumber":3,"parameterNumberName":"V-component_of_WINDS"},"data":[0,0,0,0,0,0,0,0,0,0,0,0,0,0,0,0,0,0,0,0,0,0,0,0,0,0,0,0,0,0,0,0,0,0,0,0,0,0,0,0,0,0,0,0,0,0,0,0,0,0,0,0,0,0,0,0,0,0,3.9699,3.9698,0,3.9661,3.9661,3.966,3.9653,3.9653,3.9654,3.9654,3.9609,3.9607,3.9606,0,0,0,0,0,0,0,0,0,0,0,0,0,3.9761,3.976,3.9699,3.9698,3.9698,3.9661,3.966,3.966,3.9653,3.9653,3.9654,3.9654,3.9609,3.9608,3.9606,0,0,0,0,0,0,0,0,0,0,0,0,0,3.973,3.976,3.9699,3.969,3.9689,3.9661,3.966,3.966,3.9653,3.9653,3.9654,3.9654,3.961,3.9608,3.9605,3.9582,0,0,3.9599,3.9598,0,0,0,0,0,0,0,0,3.9731,3.9727,3.9692,3.9691,3.9689,3.9662,3.9666,3.9633,3.9653,3.9666,3.9654,3.9654,3.9626,3.9622,3.9614,3.958,3.9578,3.9598,3.9597,3.9596,3.9595,0,0,0,0,0,0,0,3.9734,3.9729,3.9684,3.9691,3.969,3.9687,3.9683,3.966,3.9644,3.9665,3.9665,3.9661,3.9625,3.9616,3.9613,3.9577,3.9598,3.9596,3.9595,3.9594,3.9524,3.9523,0,0,0,0,0,0,3.9738,3.9731,3.9685,3.9683,3.9712,3.9685,3.9681,3.967,3.9644,3.964,3.966,3.966,3.962,3.9615,3.9611,3.9583,3.9596,3.9594,3.9593,3.9524,3.9523,3.9523,0,0,0,0,0,0,3.9739,3.9734,3.9686,3.9707,3.97,3.9684,3.9672,3.9669,3.966,3.964,3.9637,3.9654,3.962,3.9614,3.959,3.9581,3.9593,3.9591,3.9525,3.9524,3.9523,3.9526,0,0,0,0,0,0,3.9741,3.9735,3.9726,3.9707,3.9699,3.9667,3.9671,3.9668,3.9657,3.9657,3.9634,3.963,3.962,3.9594,3.9588,3.9578,3.9589,3.9525,3.9524,3.9523,3.9526,3.9525,3.9524,0,0,0,0,0,3.9743,3.9727,3.9726,3.972,3.9689,3.9667,3.9662,3.9653,3.9657,3.9648,3.9635,3.9631,3.9583,3.9591,3.9585,3.9574,3.9526,3.9525,3.9523,3.9527,3.9525,3.9524,0,0,0,0,0,0,3.9743,3.9724,3.9723,3.9699,3.9685,3.9666,3.9654,3.9651,3.9634,3.9634,3.9621,3.9616,3.9593,3.9581,3.959,3.9551,3.9555,3.9552,3.9559,3.9558,3.9557,3.956,3.9587,0,0,0,0,0,3.9741,3.9726,3.9709,3.969,3.9683,3.967,3.966,3.9654,3.9638,3.9631,3.9617,3.96,3.9581,3.9569,3.955,3.9525,3.952,3.9515,3.9514,3.9513,3.951,3.9497,3.9495,3.9519,3.9519,3.9519,0,0,3.9734,3.9722,3.9713,3.969,3.9678,3.9662,3.9665,3.9647,3.9635,3.9628,3.9605,3.9594,3.9574,3.955,3.9538,3.9539,3.9503,3.9511,3.9511,3.9509,3.9496,3.9494,3.9492,3.9518,3.9518,3.9518,0,0,3.9716,3.9705,3.9689,3.9678,3.9661,3.9653,3.9649,3.9631,3.9624,3.9601,3.9596,3.9581,3.9549,3.9536,3.9524,3.9504,3.9499,3.9498,3.9492,3.9479,3.9477,3.9475,3.9469,3.9466,3.9496,3.9496,3.9496,0,3.971,3.9687,3.968,3.9664,3.9654,3.965,3.9633,3.9622,3.9599,3.9592,3.9594,3.9556,3.9542,3.9515,3.951,3.9501,3.9496,3.95,3.9478,3.9477,3.9475,3.9468,3.9465,3.9496,3.9496,3.9496,3.9496,0,3.9681,3.9666,3.9654,3.9636,3.9624,3.9607,3.9597,3.9586,3.9582,3.9574,3.9551,3.9535,3.9514,3.9507,3.9502,3.948,3.9482,3.9481,3.9485,3.9473,3.9466,3.9463,3.9496,3.9496,3.9496,3.9496,0,0,3.9659,3.9639,3.9635,3.9627,3.961,3.9597,3.958,3.9562,3.9554,3.9538,3.9524,3.9499,3.9499,3.9487,3.948,3.9469,3.9455,3.947,3.9469,3.9468,3.9431,3.9431,3.9428,3.9452,3.9452,3.9451,3.9433,0,3.9638,3.9611,3.9605,3.958,3.9566,3.9563,3.9549,3.9536,3.9528,3.9514,3.9504,3.9487,3.9489,3.9481,3.9471,3.9459,3.9447,3.946,3.9438,3.9437,3.9443,3.9425,3.9424,3.9407,3.943,3.9429,3.9429,0,3.961,3.9597,3.9572,3.9559,3.9553,3.954,3.9524,3.9511,3.9497,3.9492,3.948,3.9474,3.9456,3.9462,3.9437,3.9446,3.9437,3.943,3.9429,3.9426,3.9432,3.9421,3.9401,3.9399,3.9425,3.9425,3.9426,0,3.9597,3.9574,3.9556,3.9549,3.9533,3.9524,3.9517,3.9503,3.9494,3.9479,3.9473,3.9456,3.9446,3.9433,3.9423,3.9428,3.9399,3.9403,3.9394,3.9394,3.9387,3.9388,3.9366,3.9381,3.9382,3.9382,3.9382,0,3.9574,3.9559,3.9551,3.954,3.9523,3.9516,3.9499,3.9492,3.948,3.9467,3.9463,3.945,3.9438,3.9424,3.9416,3.9397,3.9393,3.9388,3.9386,3.9388,3.9389,3.9381,3.9382,3.9381,3.9381,3.9381,3.9381,0,3.9557,3.955,3.9531,3.9519,3.9515,3.9503,3.9491,3.948,3.9473,3.9457,3.9453,3.9441,3.9424,3.9414,3.9392,3.9387,3.9366,3.9364,3.9371,3.937,3.9362,3.9363,3.9334,3.933,3.9349,3.9348,3.9348,0,3.9543,3.9531,3.9518,3.9511,3.9504,3.9491,3.9482,3.9475,3.9466,3.945,3.9441,3.9425,3.9411,3.9385,3.9373,3.9357,3.9355,3.9346,3.9352,3.9355,3.9355,3.9356,3.9355,3.9344,3.9344,3.9344,3.9344,0,3.9519,3.9517,3.9505,3.9493,3.9483,3.9472,3.9461,3.9455,3.9446,3.9436,3.9421,3.941,3.939,3.9374,3.9357,3.9347,3.9344,3.9343,3.934,3.9342,3.9347,3.9344,3.9369,3.9343,3.9343,3.9343,3.9343,3.9343,3.9502,3.9493,3.9483,3.9471,3.9463,3.9453,3.9443,3.9436,3.9424,3.9408,3.9405,3.9388,3.9375,3.9353,3.9344,3.933,3.9331,3.9326,3.9325,3.9324,3.9324,3.9349,3.9327,3.9327,3.9327,3.9327,3.9327,0,3.9478,3.9473,3.9462,3.9448,3.9439,3.9439,3.9428,3.9419,3.9406,3.9395,3.9383,3.9366,3.9351,3.9339,3.9324,3.9315,3.9313,3.9311,3.9311,3.931,3.9324,3.9329,3.9313,3.9313,3.9313,3.9313,3.9313,3.9313,3.9465,3.945,3.9447,3.9428,3.9421,3.9407,3.9401,3.9392,3.9384,3.9366,3.9354,3.9348,3.9337,3.9321,3.9307,3.9304,3.9298,3.9297,3.9293,3.9307,3.9308,3.931,3.9314,3.9295,3.9295,3.928,3.928,3.928]}]]